Location: Arezzo
(43.4170°N, 11.8830°E)
Time: 02:02:05
(UTC+01:00)

STARLINK-2709 - Pass Details

Date: 24 October 2021
Orbit: 546 x 548 km, 53.1° (Epoch: 01 December)

Event Time Altitude Azimuth Distance (km) Brightness Sun altitude
Rises 05:34:04 0° 177° (S) 2,693 7.1 -23.0°
Reaches altitude 10° 05:38:02 10° 139° (SE) 1,808 6.7 -22.3°
Maximum altitude 05:38:59 11° 125° (SE) 1,765 6.9 -22.2°
Drops below altitude 10° 05:39:57 10° 111° (ESE) 1,812 7.1 -22.0°
Sets 05:43:55 0° 73° (ENE) 2,712 8.6 -21.3°
